Theta_e
336 336 337 337 337 337 335 334 333 332 332 330 329 331 336 339 338 338 338 338 338 339 339 338 338 337 335 333 325 316 312 310 310 310 310 310 310 310 311 317 323 325 324 324 324 322 322 322 323 319 312 312 312 312 313 314 313 314 314 312 313 313 314 314 315 315 317 320 322 323 324 324 319 317 322 322 321 320 323 324 324 325 326 326 326
336 335 337 337 338 337 334 334 333 332 331 330 329 328 332 338 339 338 338 338 339 340 339 339 337 336 334 330 322 315 312 310 310 310 312 314 315 314 315 320 323 323 322 322 323 322 323 324 325 322 314 312 312 312 313 313 312 312 312 312 313 313 314 315 315 316 317 319 321 323 323 324 323 321 319 320 320 319 322 324 324 326 326 327 326
335 336 338 338 338 336 334 333 332 331 330 329 329 327 327 335 339 338 339 339 340 340 339 339 336 335 334 328 319 314 311 309 309 312 316 319 318 316 317 319 319 318 317 316 317 320 322 323 323 321 315 312 312 312 312 312 312 312 312 313 313 314 315 315 316 317 318 321 323 326 326 326 326 325 321 317 318 319 321 323 324 326 326 326 327
335 336 338 338 337 336 335 334 332 331 330 329 328 327 325 331 339 339 339 340 339 339 339 338 336 334 331 324 316 312 310 309 312 316 317 318 316 315 317 317 316 316 316 314 316 319 320 320 320 318 316 314 312 312 312 312 312 311 312 313 313 314 314 315 316 317 319 321 325 328 328 328 327 327 324 319 317 319 322 323 324 325 325 326 327
335 336 338 338 337 336 335 334 333 332 331 330 328 327 325 326 334 340 339 339 340 339 339 337 334 331 325 319 314 311 310 312 316 318 317 316 316 316 317 316 316 315 315 315 316 317 316 318 318 316 316 314 312 312 312 312 311 311 312 312 312 313 313 314 315 317 319 321 326 328 329 329 329 329 327 322 318 318 321 323 323 323 324 326 326
335 336 338 337 336 336 334 334 333 332 331 330 328 325 325 323 327 337 340 339 339 338 338 336 332 328 322 317 314 311 310 313 315 316 316 315 316 317 316 315 314 314 315 316 316 314 314 316 316 315 315 313 312 312 312 312 312 311 312 312 312 312 313 313 314 316 318 322 326 328 329 330 330 329 328 325 318 317 322 324 324 323 324 326 326
334 335 337 337 336 335 334 334 332 331 329 328 327 324 324 324 322 328 336 338 337 336 335 333 329 324 320 316 314 313 313 316 316 317 320 317 314 316 316 314 314 315 317 317 315 314 314 315 315 313 313 312 312 312 312 311 312 312 311 311 311 311 312 312 314 314 316 323 327 328 328 329 329 329 328 326 320 317 321 324 324 324 324 325 326
333 334 336 337 336 334 332 332 331 328 327 326 325 323 322 323 320 319 324 328 331 330 327 325 323 319 316 315 315 317 317 317 316 315 318 316 314 314 315 314 315 315 315 314 314 313 313 313 312 312 312 311 311 312 311 312 311 311 311 311 311 311 311 312 313 312 314 322 327 327 328 329 329 329 329 327 324 318 317 323 324 323 324 324 325
332 333 333 336 335 331 331 330 328 327 326 325 323 323 321 321 320 317 315 315 318 318 316 316 316 316 314 317 321 323 322 319 316 313 312 313 314 313 314 314 314 314 313 313 313 312 312 312 312 312 312 311 311 312 311 312 311 311 311 311 311 311 311 311 312 312 314 321 325 326 328 328 329 329 328 328 326 316 314 321 323 323 324 324 325
331 332 331 334 333 329 329 328 327 326 325 324 321 320 319 318 319 317 315 313 312 312 312 313 314 315 315 322 328 330 328 323 316 313 311 312 313 313 314 314 313 313 313 313 312 312 312 312 312 312 311 312 311 311 311 311 311 311 311 311 311 311 312 311 311 312 313 320 324 325 326 327 329 328 328 328 321 313 315 320 322 323 324 324 324
331 331 330 332 331 328 327 326 326 325 325 325 320 317 316 315 316 316 315 313 312 312 313 314 315 315 319 327 330 331 330 325 317 313 312 312 312 313 313 313 313 313 313 312 312 312 311 311 312 312 311 311 311 311 311 311 311 311 311 311 311 311 312 311 312 312 312 318 321 322 325 327 328 328 328 325 316 314 318 319 322 324 324 324 323
331 330 329 331 329 326 327 326 325 323 323 325 320 316 314 313 314 314 313 312 313 313 315 318 318 319 325 330 330 330 329 324 319 316 313 312 312 312 313 313 313 313 313 312 312 311 311 311 311 311 311 311 311 311 311 311 311 311 311 311 311 311 311 312 312 312 311 315 316 317 325 328 327 327 326 322 318 319 321 321 324 324 324 324 324
332 330 329 330 328 326 326 325 325 323 322 325 322 317 314 312 313 312 312 313 315 316 318 321 320 320 324 329 331 330 328 326 323 319 314 312 312 312 312 313 313 312 312 311 311 311 311 311 311 311 311 311 311 311 311 311 311 311 311 311 312 311 312 312 311 312 311 313 313 316 325 327 327 325 320 320 321 321 322 324 324 324 324 324 323
332 331 330 330 329 325 325 325 324 323 322 324 324 319 314 313 312 312 312 313 317 317 317 319 318 318 318 322 327 328 329 329 328 324 317 313 313 313 312 312 312 311 311 311 311 311 311 311 311 311 311 311 311 311 311 311 311 311 311 312 311 311 312 311 311 311 311 312 313 318 325 326 326 323 319 323 323 321 324 324 323 324 324 323 322
332 332 331 332 331 326 324 323 322 323 322 324 326 323 317 314 313 312 312 313 316 316 316 317 316 317 314 315 321 325 328 329 329 328 321 316 314 312 312 312 312 311 311 311 311 311 311 310 310 311 311 311 311 311 311 311 311 311 312 311 311 311 311 311 311 311 311 312 315 321 325 326 326 323 321 325 322 321 324 323 323 324 324 322 320
332 333 333 333 333 330 326 323 321 321 322 324 326 326 321 316 315 313 312 312 314 315 318 317 314 314 312 311 315 320 325 327 328 327 321 317 314 312 312 312 312 311 310 310 310 310 310 310 310 310 311 311 311 311 311 311 311 311 311 311 311 311 311 312 311 312 312 313 318 323 325 325 325 322 321 324 320 320 323 323 323 323 323 321 317
332 332 333 333 334 333 330 327 323 319 321 324 325 326 323 318 315 313 313 313 313 316 319 317 312 312 310 310 312 315 319 323 324 322 319 317 314 312 312 312 312 311 310 310 310 310 310 310 310 310 311 311 311 311 311 311 311 311 311 311 312 312 311 311 312 313 312 314 321 324 325 324 322 321 322 324 319 318 322 324 323 321 320 320 315
331 331 332 332 333 334 333 332 328 322 321 323 324 325 323 318 314 311 312 314 314 316 317 315 312 311 310 310 311 312 314 317 318 317 316 316 314 313 312 311 311 310 310 310 310 310 310 310 310 311 311 311 311 311 311 311 311 311 311 312 312 312 311 311 312 313 313 318 323 325 324 323 321 321 324 324 319 318 320 322 321 317 317 317 311
331 330 330 330 332 333 332 333 331 327 326 325 324 324 323 318 313 311 312 314 316 316 315 313 312 310 310 310 311 312 313 315 316 316 315 315 314 313 312 311 311 310 310 310 310 310 310 310 310 310 311 311 311 311 312 311 311 311 311 312 312 312 312 312 312 313 317 320 322 324 323 322 320 321 323 323 320 319 320 319 316 312 312 311 305
331 331 331 331 332 332 330 330 330 329 326 325 326 324 323 320 315 312 313 314 316 316 314 313 312 310 309 310 310 311 312 314 315 315 315 314 314 313 312 311 311 310 310 310 310 310 310 310 310 311 311 311 311 311 311 311 312 311 312 313 313 314 313 313 313 313 317 319 321 323 323 323 321 320 323 322 319 319 322 319 312 307 305 303 301
330 330 331 332 332 332 329 327 327 325 321 321 325 325 323 322 318 313 312 314 315 315 314 313 312 310 309 308 309 310 311 313 314 314 314 314 313 313 311 311 311 310 310 310 310 310 310 310 310 310 310 311 311 311 312 311 311 311 312 312 314 316 313 313 315 314 315 318 321 321 322 323 322 321 323 321 318 318 320 316 307 303 301 300 300
329 329 329 331 332 332 330 327 325 323 320 318 322 324 323 323 321 316 313 312 314 315 313 311 311 309 308 308 308 309 310 311 312 313 313 313 313 312 311 311 311 310 310 310 310 310 310 310 310 310 310 311 311 311 312 312 311 311 312 312 316 317 314 314 317 316 313 316 320 320 321 322 321 321 321 321 319 318 316 309 303 301 300 300 300
329 328 328 329 330 331 330 328 326 324 321 319 320 323 323 323 323 319 315 312 312 313 313 311 311 310 309 308 308 308 309 310 311 312 312 312 312 312 311 311 311 310 310 310 310 310 310 310 310 310 311 311 311 312 312 312 313 313 313 315 317 316 314 316 317 317 314 313 316 317 317 318 319 319 319 320 318 317 312 304 301 300 300 300 300
329 329 329 329 329 330 330 328 327 326 324 322 321 322 322 322 322 321 318 313 311 311 312 311 310 310 309 309 308 307 308 309 310 311 311 311 311 311 311 311 311 310 310 310 310 310 310 310 310 310 311 311 312 313 315 316 317 317 317 318 318 316 316 317 317 317 315 312 312 312 313 315 318 318 319 321 316 313 309 303 301 300 300 300 299
326 328 329 329 329 329 329 328 327 326 326 325 324 323 322 322 322 322 320 316 312 310 310 310 310 310 310 310 309 307 307 309 310 310 311 311 311 311 311 311 311 310 310 310 310 310 310 310 310 311 311 312 312 315 316 318 319 319 320 320 319 317 317 317 316 317 316 312 311 310 310 312 318 320 318 317 314 310 306 303 301 300 300 299 299
323 324 324 326 328 329 330 329 328 327 325 324 324 324 322 322 322 322 322 319 314 311 309 308 309 309 309 310 309 308 307 308 309 309 310 310 310 310 310 311 311 310 310 310 310 310 310 310 310 311 312 312 313 314 315 317 318 319 321 320 320 319 318 317 316 318 316 313 311 309 308 308 315 318 316 315 313 309 306 303 301 300 300 300 300
320 320 320 322 325 327 328 329 329 328 326 324 323 323 321 321 322 320 322 322 318 314 310 308 308 308 309 309 310 308 307 307 308 308 309 310 310 310 310 311 311 310 310 310 310 310 310 310 311 311 312 313 313 313 314 317 317 317 320 320 319 319 319 318 317 318 317 313 310 308 306 304 307 310 314 318 316 314 311 304 301 302 300 299 300
319 318 318 320 322 324 326 327 328 328 328 326 324 322 321 320 321 320 321 322 322 318 312 309 308 308 308 308 309 309 308 307 307 308 308 309 310 310 311 311 311 310 310 310 310 310 310 310 311 311 312 313 313 314 316 319 319 318 320 320 319 319 318 317 316 317 317 314 311 307 304 302 302 306 313 319 319 317 315 310 305 306 305 301 300
318 317 317 318 318 320 323 325 326 327 328 327 326 323 322 321 320 320 320 321 322 321 317 312 309 309 308 308 309 309 308 307 307 307 307 308 309 310 310 310 311 310 310 310 310 310 310 310 311 311 312 313 314 316 318 321 321 319 320 320 319 319 318 317 316 316 316 314 311 307 303 300 301 307 314 318 319 319 317 316 311 306 306 303 300
318 317 317 316 316 317 320 322 324 325 326 327 327 325 323 321 320 319 320 320 320 322 322 318 313 310 309 308 308 309 309 308 307 307 307 307 308 309 310 310 310 310 310 310 310 310 310 311 311 312 312 313 315 316 318 320 321 321 321 320 320 319 318 317 316 316 316 314 312 308 302 299 300 306 313 315 318 318 316 316 312 305 305 305 301
319 319 318 317 316 316 316 319 321 323 325 326 326 325 324 322 321 320 320 320 320 321 322 321 317 313 310 309 308 308 308 308 308 308 307 307 308 308 309 309 310 310 310 310 311 311 311 311 312 312 313 313 315 316 317 319 321 322 320 319 319 318 318 318 317 316 316 315 312 309 303 298 299 304 309 312 315 317 314 314 312 308 308 306 303
319 319 319 319 318 317 316 317 318 320 323 325 326 325 324 322 321 321 320 320 320 321 321 321 320 316 313 310 308 308 308 308 308 308 307 307 307 307 308 308 309 310 310 311 311 311 311 312 312 313 313 313 315 315 316 318 321 321 320 318 319 318 318 318 317 316 317 316 313 311 307 299 298 302 306 309 313 312 311 313 312 309 308 305 303
320 319 320 320 320 320 319 317 317 318 320 323 325 325 325 323 321 320 321 321 320 321 321 321 320 318 314 310 309 308 308 308 307 307 307 307 307 307 307 308 309 309 310 311 311 311 312 312 313 313 313 314 314 315 316 318 321 321 319 318 319 319 318 318 317 316 317 315 314 312 310 304 299 299 303 307 309 308 309 312 311 307 305 303 301
321 320 320 320 320 320 320 319 318 317 317 320 323 325 325 323 321 320 321 321 322 321 321 321 319 319 316 311 309 308 308 308 307 307 307 307 307 307 307 307 308 309 310 310 311 311 312 312 313 313 313 314 314 315 316 319 321 321 320 319 319 319 319 318 317 316 316 316 315 314 313 310 303 298 299 303 307 307 308 309 308 305 304 301 298
321 321 321 320 320 320 320 320 319 319 317 317 320 324 325 324 322 320 321 322 322 322 322 321 319 318 317 313 309 308 308 308 307 307 307 307 307 307 307 307 307 308 309 310 310 311 312 312 313 313 313 314 314 315 315 318 320 321 321 320 320 319 319 318 317 316 316 317 317 316 314 313 309 302 298 303 308 308 307 307 306 304 304 301 297
323 322 321 320 320 320 320 321 320 320 318 316 317 321 325 324 322 321 321 321 322 323 322 321 319 318 316 313 310 309 308 308 308 307 307 307 307 307 307 307 307 307 308 309 310 310 311 312 312 313 314 314 314 314 315 317 319 320 321 321 320 319 319 319 318 317 316 316 316 317 316 314 313 308 301 302 306 306 305 304 303 303 302 300 297
323 321 321 321 321 321 320 320 320 320 320 318 316 318 323 324 323 321 321 321 321 322 323 323 320 318 316 314 311 310 309 308 308 307 307 307 307 307 307 307 307 307 307 308 308 310 310 311 312 313 313 314 314 315 315 316 318 320 321 321 320 319 319 319 318 318 316 315 316 317 317 315 314 312 307 303 300 301 303 302 300 301 300 298 297
323 322 322 323 323 322 321 320 320 320 321 320 318 316 319 323 323 322 321 321 321 322 322 323 322 318 316 314 311 311 310 309 308 307 307 307 307 307 307 307 307 306 307 307 307 308 309 310 311 312 312 313 314 314 314 316 318 319 319 319 319 319 318 318 318 318 317 316 316 316 316 315 314 313 312 308 301 298 299 299 298 298 297 297 296
322 323 323 324 324 323 322 321 319 320 321 321 320 318 317 320 323 323 322 321 321 322 322 323 323 319 316 315 313 312 311 310 309 308 307 308 308 308 308 307 307 307 307 306 306 307 307 308 309 310 311 312 312 313 314 316 318 318 318 319 319 319 319 319 318 318 317 317 317 317 317 316 316 315 314 313 309 303 298 297 297 297 296 296 296
322 323 324 324 325 324 323 322 320 319 320 321 321 319 317 318 322 324 323 322 322 322 322 323 323 320 316 315 314 312 312 311 309 308 308 308 308 309 309 308 308 307 307 307 307 306 306 306 307 308 310 310 311 312 313 314 317 319 320 320 319 319 320 319 319 318 318 318 317 317 317 316 316 316 315 314 314 310 303 298 296 296 297 296 296
323 323 323 324 325 325 324 323 321 319 320 320 320 318 316 315 319 323 324 323 323 322 323 323 324 321 317 315 314 312 312 311 309 309 309 309 310 310 310 309 308 308 308 308 307 307 307 306 307 307 308 309 310 311 312 313 317 320 320 321 320 319 320 320 320 319 319 318 318 318 318 317 317 316 316 315 314 314 309 302 298 296 297 296 296
324 324 324 325 325 325 324 322 321 319 319 320 319 318 316 314 316 320 324 325 324 324 324 324 324 323 319 315 313 312 312 311 309 309 310 311 312 312 312 311 310 310 310 309 309 308 308 307 307 307 307 308 309 310 311 312 316 319 320 321 321 320 320 320 319 319 318 318 318 318 318 317 317 316 315 315 314 313 313 309 303 298 297 297 296
325 325 325 325 325 325 324 322 320 319 318 319 319 319 318 316 315 316 320 323 324 325 324 324 324 324 322 319 315 312 311 311 310 310 311 312 313 314 314 314 313 312 311 311 310 310 310 309 308 308 307 308 309 309 310 311 314 318 320 320 321 321 320 319 318 318 317 318 317 318 318 317 317 316 315 315 314 313 313 312 309 303 299 297 296
325 326 325 325 325 325 325 323 320 319 319 318 319 319 319 319 318 316 316 318 322 324 324 324 324 325 325 323 319 315 312 311 311 311 312 313 314 314 315 315 315 314 313 312 312 313 313 311 310 309 308 309 310 310 311 311 312 317 321 320 320 320 319 320 319 318 318 318 318 318 317 317 316 316 316 316 315 315 314 313 312 310 306 301 298
325 326 326 325 325 325 325 323 320 319 319 318 318 318 319 320 321 320 318 316 317 320 323 325 326 325 325 325 323 319 315 312 312 313 314 315 315 315 315 316 316 315 314 314 315 315 315 314 313 312 311 311 311 311 312 312 312 315 318 320 321 320 320 320 320 320 319 318 318 318 317 317 317 317 317 316 316 316 316 315 314 313 311 308 303
324 325 326 326 326 325 325 324 321 319 318 318 318 318 318 319 321 321 318 316 315 316 319 323 326 327 327 326 326 324 320 316 315 316 317 318 318 318 317 317 318 317 317 316 316 317 317 317 317 316 314 314 313 312 312 314 314 314 316 318 320 321 321 321 320 320 320 318 318 318 318 318 318 317 316 316 316 317 318 317 316 314 313 312 309
323 324 325 325 326 325 325 325 323 321 319 318 318 318 317 318 320 319 318 316 315 314 314 317 321 324 327 328 327 326 325 322 320 319 320 320 320 320 320 320 320 320 320 318 318 319 320 320 320 318 317 317 314 313 313 315 316 316 316 317 318 319 319 320 321 321 321 320 319 319 319 319 319 318 317 317 317 318 318 318 317 316 315 314 313
322 322 323 324 325 325 325 325 325 323 321 319 318 317 317 318 318 319 318 317 316 315 314 314 315 317 321 324 327 327 327 326 324 323 322 322 322 322 322 322 321 322 322 321 321 321 321 320 320 320 319 318 317 316 316 316 316 318 318 318 318 318 319 320 320 321 321 321 320 320 320 319 320 319 319 319 319 318 318 319 318 317 316 315 314
322 322 322 322 322 323 324 325 325 325 324 321 319 318 317 318 318 318 318 318 317 316 316 315 314 314 315 317 321 324 326 327 327 326 325 324 324 323 323 323 323 323 322 322 321 321 321 321 320 320 320 320 320 320 319 317 317 319 319 319 319 319 319 320 320 321 321 321 321 321 321 320 321 320 320 320 320 319 319 319 319 318 317 316 315
321 321 321 321 322 322 322 324 324 325 325 324 323 321 319 318 318 318 318 319 318 318 318 317 316 316 315 314 315 318 320 324 326 327 327 327 327 326 326 327 327 327 326 324 323 321 320 320 320 320 320 320 320 320 320 320 319 319 319 320 321 320 320 320 321 321 321 321 322 322 321 320 320 321 321 320 320 319 319 318 318 318 318 317 316
321 321 321 321 322 322 322 322 323 324 324 325 325 324 323 322 321 321 320 319 319 319 319 319 318 317 316 315 314 314 315 317 320 323 325 326 327 328 328 328 329 329 329 328 327 325 323 321 321 320 320 320 320 320 320 320 320 319 319 319 321 321 321 321 322 322 322 322 322 322 322 321 321 321 320 320 319 319 319 318 318 318 319 318 317
Wind_Speed
14 13 13 11 11 11 11 11 9 8 7 6 6 6 7 8 8 9 10 10 9 8 6 4 3 1 0 2 4 5 4 5 6 8 9 9 8 7 7 8 8 8 8 9 10 10 10 9 10 12 12 12 12 11 12 12 13 14 14 14 14 14 13 13 14 14 15 15 16 16 16 15 20 22 16 14 16 20 20 19 18 12 14 18 16
15 15 13 12 11 11 11 11 9 8 6 6 6 6 6 8 9 9 10 10 9 8 5 3 3 2 1 1 3 3 3 4 5 7 9 9 9 9 9 10 10 10 10 11 12 12 12 11 12 12 12 12 12 11 12 12 13 14 14 14 14 14 14 15 15 15 16 16 17 18 17 16 18 22 20 16 15 19 18 17 16 11 13 15 15
15 15 13 12 12 11 11 10 9 8 6 5 5 6 6 7 9 9 10 10 9 7 6 4 3 2 1 2 3 2 3 4 6 8 9 10 10 10 10 10 10 10 10 10 12 12 12 12 12 11 12 12 12 12 12 12 13 13 14 14 14 14 14 15 15 15 16 17 18 19 18 16 15 18 21 19 17 19 19 18 17 13 13 14 14
14 14 13 12 11 10 10 10 10 8 6 4 4 5 6 8 9 9 10 10 9 7 7 5 3 2 2 3 2 1 3 5 7 9 9 10 10 11 11 11 10 10 10 11 12 12 12 11 11 11 12 12 12 12 12 12 13 13 14 14 13 14 14 15 15 15 16 16 19 18 15 15 14 15 18 19 18 19 19 18 17 15 14 14 14
13 13 13 11 10 9 9 10 10 9 6 5 4 5 6 8 9 10 10 10 10 8 8 6 4 3 4 4 1 2 4 6 8 9 9 10 11 11 11 11 11 11 11 12 12 11 11 11 11 11 12 12 12 12 12 12 13 13 13 13 13 13 13 14 14 15 15 16 18 16 13 13 12 13 15 18 17 15 16 16 16 14 14 14 13
13 13 13 11 8 8 8 9 10 8 6 5 6 6 7 9 10 11 11 10 10 9 8 6 4 4 6 3 2 3 4 6 8 9 9 11 11 12 12 12 11 11 11 12 11 10 10 11 11 11 11 11 11 12 12 12 12 12 12 12 12 12 12 13 13 14 14 15 16 14 13 11 11 11 12 15 15 14 14 15 14 14 13 13 13
13 12 12 12 9 8 7 7 7 6 5 6 7 8 8 9 11 12 12 11 10 9 8 7 7 7 7 3 4 4 5 6 8 9 10 11 11 12 12 12 11 11 11 11 10 10 10 10 10 11 11 11 11 12 12 12 12 12 12 12 11 12 11 12 12 12 13 13 12 12 12 11 10 9 10 12 14 13 12 13 13 13 12 12 13
13 11 11 11 9 8 6 6 4 3 4 5 7 8 9 10 12 13 13 13 12 10 9 10 9 9 8 4 5 4 6 8 8 9 10 10 11 12 11 11 10 10 10 10 10 10 10 9 9 10 10 10 11 11 11 11 11 12 11 11 11 10 10 10 10 10 12 11 11 12 12 10 10 9 9 10 12 12 8 11 12 12 12 13 13
13 10 10 10 9 8 6 5 3 1 2 4 6 8 9 11 12 12 13 13 13 12 11 11 10 9 6 4 6 6 8 8 8 9 9 9 11 11 10 10 9 9 9 9 9 9 9 8 9 9 10 10 10 10 10 11 11 11 11 11 10 10 10 10 10 10 10 9 10 12 12 10 9 9 8 8 12 10 7 10 12 12 12 13 12
13 11 10 9 8 7 6 5 3 2 0 1 4 6 8 10 11 12 11 11 12 12 11 10 9 8 6 6 7 7 7 6 7 9 9 9 10 9 9 9 8 8 7 7 7 7 8 7 8 8 9 10 10 10 10 10 10 10 10 10 10 10 11 10 10 9 9 8 8 11 12 11 9 8 7 8 12 9 10 11 12 13 12 12 10
14 12 11 9 9 8 6 5 3 3 1 1 2 4 6 8 10 11 11 11 11 10 10 10 9 9 9 8 8 8 8 5 6 8 9 9 9 8 8 7 8 7 7 7 6 7 7 6 7 8 9 10 10 10 10 10 10 10 10 10 10 10 11 10 9 8 7 7 8 9 11 11 8 7 6 9 10 10 12 13 13 12 11 10 8
14 12 11 9 9 7 7 5 4 3 2 2 2 3 4 6 9 10 11 10 10 9 9 9 10 11 11 10 9 8 8 5 6 8 8 9 9 8 7 7 7 6 6 6 6 6 6 6 7 8 9 10 10 10 10 10 10 10 10 10 10 10 10 10 8 7 7 6 8 9 10 10 7 5 5 7 9 11 12 13 12 10 9 8 6
15 13 12 10 9 8 7 6 5 4 3 3 2 2 3 5 7 8 9 9 8 8 8 8 10 11 12 12 11 9 7 6 6 7 9 9 8 8 6 6 6 5 5 5 5 5 5 5 6 8 9 9 9 9 9 9 9 10 10 10 10 10 10 10 9 7 7 7 8 8 10 8 4 4 5 6 8 11 12 11 10 9 7 6 5
14 13 12 11 10 9 8 7 6 5 4 3 2 2 3 4 5 7 8 8 8 7 8 8 9 11 12 13 12 11 8 7 7 7 9 9 7 7 6 5 5 4 4 4 4 4 4 5 6 7 8 8 8 8 8 9 9 10 10 10 11 10 10 10 9 8 7 7 8 8 9 6 4 6 7 8 8 10 10 9 8 7 6 4 4
13 12 12 11 10 9 9 8 6 5 4 4 3 2 3 4 5 6 7 8 8 7 8 9 10 10 10 12 12 11 10 9 8 7 8 8 7 7 6 5 4 3 3 3 3 3 3 4 5 6 7 7 7 7 7 8 9 10 11 11 11 11 10 9 9 8 8 7 8 10 9 5 5 7 8 7 7 8 9 7 6 5 4 3 3
13 12 12 11 10 10 9 8 7 6 5 5 4 3 4 4 5 6 7 8 8 7 8 9 9 8 8 11 12 12 11 10 8 8 8 8 7 7 6 5 4 3 3 3 2 2 2 3 4 5 5 6 6 7 7 8 9 10 11 12 12 11 10 9 8 8 8 8 9 9 8 4 5 8 7 6 5 8 8 6 4 2 2 2 3
15 14 12 11 10 10 10 9 9 7 6 6 5 5 4 5 7 8 9 8 8 8 8 8 8 7 8 8 10 11 11 10 9 9 8 8 8 7 6 6 5 4 3 2 2 1 1 3 4 4 4 5 6 7 8 9 10 11 11 12 12 11 10 8 8 8 8 9 9 8 6 2 3 8 7 5 4 7 7 4 2 2 1 2 3
15 14 13 12 11 11 10 10 10 9 8 7 6 5 5 6 7 8 9 8 9 10 9 8 7 6 6 6 7 8 10 9 9 8 8 8 8 8 7 6 5 4 3 2 1 1 1 2 3 3 4 5 6 7 8 9 10 11 12 11 11 10 9 8 7 7 8 8 8 6 4 2 5 8 7 4 3 6 6 3 2 2 1 1 3
16 15 14 13 12 12 11 11 10 10 10 8 6 5 5 6 7 8 9 9 9 10 9 8 7 6 6 6 7 7 7 8 8 8 8 8 8 8 7 7 6 5 4 3 2 1 0 1 2 3 4 5 7 8 8 9 10 11 11 11 11 10 8 7 6 6 6 6 7 5 4 4 7 8 5 2 2 6 4 4 3 1 2 1 3
17 17 16 15 13 13 13 12 11 11 11 9 8 7 6 5 6 8 9 10 10 10 9 9 8 7 7 7 7 7 7 8 8 8 8 8 8 8 8 8 7 6 5 4 3 2 1 1 2 3 4 5 7 7 9 9 10 11 11 11 11 9 8 6 5 5 4 6 7 4 5 6 6 6 5 1 3 7 2 3 1 1 2 2 4
19 19 18 16 15 15 15 13 12 12 12 11 10 9 7 6 7 8 10 10 10 9 9 9 9 9 8 8 8 8 9 9 9 9 9 9 9 9 9 9 9 8 6 5 4 3 2 3 3 3 4 5 6 7 9 9 10 10 10 11 10 8 7 6 4 4 4 6 5 4 6 6 5 5 4 1 2 6 4 2 1 2 3 3 5
21 21 20 18 17 17 16 15 14 13 12 12 11 10 9 8 8 9 10 11 10 9 10 10 10 10 9 9 9 9 10 10 10 10 10 10 10 10 10 10 9 9 7 6 5 4 4 4 4 4 4 5 6 7 9 9 9 10 10 10 8 7 7 5 3 3 4 6 4 5 6 5 5 4 4 2 3 5 5 2 2 3 3 3 4
22 22 22 21 19 17 17 17 16 14 13 13 13 12 11 10 10 10 11 11 12 11 11 11 12 11 11 10 10 10 10 10 10 10 10 10 10 10 10 10 10 9 8 8 6 5 6 5 4 4 4 5 6 7 8 8 8 8 9 8 6 7 7 5 3 2 3 5 4 6 6 4 4 4 4 4 3 4 3 2 2 2 3 3 4
22 22 23 23 21 19 19 18 17 15 15 15 15 14 13 12 12 12 12 12 12 13 13 12 12 12 12 12 11 11 11 11 11 10 10 11 11 11 11 12 11 11 10 9 8 7 7 6 5 5 5 5 6 6 6 5 5 5 5 4 5 8 6 4 3 2 1 4 4 5 5 4 4 2 4 4 4 3 2 2 3 2 2 2 3
20 21 23 23 22 21 21 20 19 18 17 16 16 15 15 14 14 13 13 12 12 13 14 13 12 12 12 13 13 13 13 12 12 12 11 12 11 12 12 12 12 12 11 9 8 8 8 7 6 6 5 5 6 5 4 3 3 3 3 3 4 6 5 3 2 2 1 3 4 4 4 6 7 2 3 5 4 4 3 2 3 2 2 1 2
20 20 21 22 22 22 21 21 21 20 20 19 18 17 17 16 15 15 14 13 13 13 14 13 13 13 13 13 14 15 14 13 12 12 12 12 12 12 13 13 13 12 11 10 10 9 9 8 8 6 6 6 6 6 6 5 4 3 3 3 3 4 4 3 2 2 1 2 3 4 5 7 9 5 4 3 3 3 3 3 3 3 2 1 1
19 19 19 20 21 21 21 21 21 21 21 21 20 20 19 18 17 17 16 15 14 13 14 14 13 13 13 13 13 15 15 14 13 13 13 13 13 13 13 13 13 13 12 11 11 11 10 10 9 7 6 6 6 7 7 6 6 5 3 3 4 4 3 2 2 1 1 2 3 4 5 6 7 5 4 2 4 3 2 3 3 3 3 1 0
17 18 18 19 20 20 21 21 21 21 21 22 22 23 21 19 19 18 17 17 16 14 14 14 14 14 14 14 13 15 15 15 14 13 13 13 13 13 14 14 14 13 13 13 12 12 12 11 10 9 8 7 7 7 6 4 5 5 3 4 6 5 3 3 1 1 1 1 4 5 5 6 6 5 6 6 4 3 2 2 2 3 2 1 0
17 17 17 18 18 19 19 21 21 21 20 21 23 24 23 21 21 20 19 19 18 16 15 15 15 15 16 16 15 15 15 16 15 15 15 14 14 14 15 15 14 14 14 14 13 13 13 12 12 10 9 8 7 6 5 3 3 4 3 5 6 5 5 6 4 2 2 2 4 5 6 6 6 6 8 8 5 5 4 2 2 3 2 1 0
17 16 16 17 17 18 19 21 21 21 20 21 23 24 23 23 22 20 20 20 19 18 17 17 17 17 17 17 16 16 16 16 16 16 16 16 16 15 15 15 14 15 15 15 14 14 14 13 13 12 10 9 8 7 6 4 4 4 4 5 6 5 5 8 6 2 2 4 5 6 7 6 6 7 9 10 8 8 6 4 4 3 2 2 0
17 17 16 16 17 17 18 20 21 21 21 22 23 24 24 23 22 21 21 21 20 19 19 19 19 19 19 19 18 17 17 17 17 17 17 17 17 16 15 15 15 15 16 16 16 15 15 14 14 13 11 10 9 8 7 5 5 5 5 6 5 5 5 7 7 4 1 4 6 6 7 7 7 8 9 10 10 9 8 6 5 3 2 2 2
17 16 16 17 17 17 17 18 20 21 22 23 24 24 24 24 22 22 22 21 20 20 20 20 20 20 20 20 19 18 18 17 17 17 17 17 17 17 17 16 16 16 17 17 16 16 16 16 15 14 13 12 10 9 9 7 5 4 5 5 4 6 6 7 7 5 4 4 7 6 7 8 8 9 9 10 12 11 8 8 7 4 3 3 4
18 17 17 18 18 18 18 18 20 21 22 23 24 25 25 24 24 23 22 21 21 21 21 21 21 21 21 21 20 19 18 18 17 17 17 17 17 18 18 18 17 18 18 17 17 17 17 17 16 15 14 13 11 11 10 7 6 4 5 5 4 6 8 9 8 6 6 5 7 7 7 8 9 10 10 12 14 13 10 10 9 6 5 6 6
19 20 20 19 19 19 19 20 20 21 21 22 24 26 25 25 25 23 23 22 21 21 21 22 21 21 22 22 21 20 19 18 18 17 18 18 18 19 19 19 19 19 19 19 18 18 18 18 17 17 16 14 13 12 10 7 6 5 6 6 5 6 8 10 10 7 7 5 6 8 8 8 9 11 12 13 15 15 13 12 11 9 8 8 9
22 23 22 21 21 21 21 21 21 21 21 21 23 25 26 26 26 25 24 23 22 22 22 22 22 22 23 23 22 22 21 20 19 19 19 19 19 19 19 19 20 20 20 20 20 20 20 19 19 18 17 16 14 13 12 10 8 7 8 7 5 7 9 12 12 10 8 7 6 8 9 9 9 10 12 12 14 17 16 15 15 13 11 11 11
24 24 23 22 22 23 23 22 22 22 23 22 22 24 26 27 27 26 25 24 23 23 23 22 22 23 24 24 24 23 22 21 21 21 20 20 20 20 20 20 20 21 21 21 21 21 21 20 20 20 18 18 16 15 14 12 10 9 9 8 7 9 10 12 13 11 9 8 7 8 10 11 11 10 11 12 15 18 18 18 17 15 14 14 13
26 23 22 22 22 23 24 24 23 23 23 23 22 22 25 28 28 28 26 25 25 25 24 23 23 24 25 25 25 25 23 23 23 22 21 21 21 21 21 21 21 21 22 21 21 22 22 22 22 21 20 19 17 15 15 14 11 9 10 9 9 10 10 12 12 10 10 8 8 9 10 11 12 11 11 13 16 19 20 19 18 16 16 15 15
25 22 21 21 22 24 25 25 25 25 25 25 23 22 24 27 29 29 28 27 27 26 25 25 24 24 25 26 26 26 25 25 25 24 23 23 22 22 21 21 22 22 22 21 21 22 23 23 23 23 22 21 19 17 16 16 13 13 13 12 11 12 13 13 12 12 12 8 7 8 9 10 12 13 13 13 15 18 20 20 18 18 17 16 16
24 23 22 23 25 26 27 27 27 27 27 26 25 24 24 27 30 31 31 30 30 29 28 27 26 25 26 26 27 28 28 27 27 26 25 24 23 22 22 22 22 22 22 22 21 22 23 23 23 23 23 22 21 19 18 17 15 15 15 14 13 13 15 14 13 14 12 10 10 10 11 12 13 14 15 15 15 16 18 19 19 18 17 17 17
27 28 27 27 29 29 29 29 29 29 29 28 28 28 27 28 31 33 34 33 32 31 30 29 28 27 27 27 28 29 29 29 28 27 26 25 24 23 23 22 22 22 22 22 22 22 23 23 22 23 23 22 22 21 20 18 16 15 15 15 15 15 16 16 15 15 14 13 13 13 13 14 15 15 17 17 17 17 17 18 19 18 18 18 18
30 31 32 32 32 31 31 32 31 32 32 31 31 30 30 30 31 34 35 35 34 33 32 31 29 29 27 28 29 30 30 30 29 29 28 27 26 25 24 23 23 23 23 22 22 23 23 22 22 22 23 23 23 22 21 19 17 15 15 15 15 16 17 17 17 17 16 16 15 15 15 16 17 17 17 19 19 20 19 18 19 19 19 19 19
32 34 36 35 32 31 33 32 32 34 34 33 32 32 32 31 31 33 34 34 35 34 33 32 31 29 29 29 29 30 31 31 31 30 30 28 27 26 24 24 24 24 24 23 22 22 22 22 22 23 23 24 24 23 22 20 19 17 14 14 14 16 18 18 19 19 18 18 18 17 17 16 17 16 15 16 16 18 19 20 20 19 20 20 20
32 34 34 33 31 32 33 32 32 35 36 34 34 33 32 31 30 31 32 33 34 34 34 33 32 32 31 30 30 31 32 33 33 32 31 30 29 28 26 25 25 25 25 24 23 23 22 22 23 23 24 24 23 23 23 21 21 16 13 15 14 14 17 17 17 17 15 15 15 16 16 16 15 14 14 14 13 13 16 19 20 21 21 20 20
31 32 32 32 32 33 33 32 32 35 36 35 34 32 32 31 31 31 31 32 33 34 33 34 35 35 35 34 33 34 34 35 34 33 33 31 30 29 28 27 27 26 26 25 24 23 23 23 23 23 24 24 23 23 22 21 22 18 13 13 12 12 14 13 12 12 11 12 13 13 13 13 13 14 14 14 13 13 13 14 17 19 21 21 21
31 31 31 32 32 32 31 31 32 34 35 35 33 32 33 33 33 33 33 33 34 36 36 37 38 39 39 38 37 36 36 35 34 34 34 33 32 31 30 29 29 28 28 27 26 25 24 24 23 23 23 24 23 23 23 22 23 23 19 13 10 10 11 11 10 11 12 13 12 12 12 12 14 15 15 14 14 13 13 13 14 16 19 21 22
31 31 31 31 32 31 30 30 32 33 34 35 33 33 34 35 35 36 36 36 37 38 39 39 40 40 40 40 39 38 37 36 36 36 36 35 34 33 32 31 30 30 30 29 28 27 26 25 23 24 24 24 23 25 26 23 22 25 26 22 18 16 13 11 11 12 14 15 14 15 15 15 16 16 15 15 15 15 15 14 13 15 16 19 21
27 28 29 31 32 32 31 31 32 34 35 34 34 34 35 36 36 36 37 38 38 38 37 37 38 39 39 39 39 40 39 38 38 38 37 37 36 34 33 32 32 32 31 31 31 30 28 26 26 25 25 25 25 27 28 26 25 27 28 27 27 26 22 18 16 14 14 16 18 19 18 18 19 19 18 17 17 18 18 17 16 16 17 18 20
26 25 25 27 30 32 33 33 33 34 35 35 35 35 35 35 35 36 38 38 38 37 37 37 37 38 39 38 39 40 39 39 39 39 39 38 37 36 35 34 34 34 34 34 34 32 30 29 29 28 27 28 28 29 29 29 30 28 27 27 28 29 27 25 24 20 19 20 22 23 23 22 22 23 22 21 21 21 22 22 20 18 18 18 20
27 28 26 26 27 28 31 34 36 36 36 36 37 37 36 35 35 37 39 39 37 36 37 37 37 37 38 37 38 39 39 40 40 40 40 39 38 37 36 36 36 36 37 37 36 35 34 33 32 31 31 31 31 31 30 31 32 31 29 28 28 29 28 27 28 27 26 28 29 28 26 25 26 27 26 25 25 24 24 25 23 22 20 20 21
25 26 27 29 29 28 28 31 35 38 38 37 38 38 38 38 39 40 41 40 39 38 38 39 39 39 38 38 38 39 39 40 40 40 41 40 39 39 38 38 38 38 38 39 38 38 37 36 35 34 34 34 34 34 33 32 33 34 32 27 26 29 30 29 28 28 28 30 32 32 30 30 30 30 28 27 27 26 25 25 23 23 23 23 23
26 25 26 27 29 30 29 29 31 34 37 38 38 40 41 42 43 43 43 43 42 41 41 41 40 40 39 38 38 38 38 39 40 40 41 40 40 40 40 39 39 39 39 39 39 38 38 38 38 37 38 38 37 37 36 35 34 35 36 31 26 26 30 31 29 27 28 30 32 33 32 31 31 31 29 26 25 25 25 26 24 23 24 26 25
Wind_Direction
160 159 157 159 147 140 138 136 132 130 125 121 118 121 131 131 136 139 138 136 130 129 133 138 147 164 66 354 2 357 13 56 78 103 119 128 135 140 130 114 105 94 95 97 97 98 99 93 83 76 71 70 68 69 69 70 73 78 78 78 80 78 75 69 66 64 67 69 67 65 64 64 52 48 57 66 62 62 66 72 70 56 52 53 49
162 159 154 159 149 142 141 140 140 140 138 132 127 129 138 138 141 144 142 137 129 130 136 145 152 151 136 5 348 343 28 73 87 100 107 113 116 119 114 104 102 93 88 86 86 87 89 91 87 80 74 74 72 72 71 69 72 74 74 73 73 70 67 64 63 65 66 67 66 62 58 62 57 46 44 54 61 67 70 76 82 68 53 53 48
165 158 152 161 152 146 145 145 147 147 146 144 138 137 148 149 146 148 143 136 136 141 148 157 161 170 236 329 318 338 68 96 97 96 100 103 104 105 105 100 100 95 92 90 88 87 88 89 89 85 78 78 76 72 70 67 67 68 69 70 69 66 65 64 65 68 69 69 67 60 53 53 54 46 39 45 60 73 75 77 81 72 62 57 50
168 159 154 161 156 153 150 149 152 152 151 156 162 152 159 164 155 154 149 143 148 154 158 169 190 206 270 295 290 99 104 114 103 97 99 101 104 103 101 99 99 97 95 94 93 91 92 91 89 87 81 78 75 71 68 65 63 63 66 67 65 64 64 64 65 69 70 69 69 66 58 51 48 44 37 40 56 74 79 75 72 67 65 59 52
169 162 155 155 160 164 156 153 157 158 163 172 190 181 175 177 170 163 160 156 155 158 166 185 218 238 284 286 220 133 121 111 103 98 101 105 107 104 103 102 100 99 98 97 95 95 95 91 87 84 80 75 70 70 67 63 61 62 63 63 63 63 63 63 63 67 69 69 70 70 65 58 53 44 35 38 47 63 71 69 66 65 66 61 55
172 165 158 153 162 177 168 160 164 165 176 188 196 198 190 187 186 182 176 173 174 178 185 205 242 269 286 272 143 140 124 108 104 102 104 109 110 106 106 106 103 102 101 99 95 93 90 86 83 79 76 70 65 69 67 60 58 58 58 59 58 59 60 60 61 66 70 68 70 71 66 63 60 47 32 39 43 51 64 68 66 65 65 62 60
177 170 162 156 160 184 181 167 173 175 183 193 194 196 194 193 196 197 196 194 197 207 212 227 252 270 274 224 149 140 125 116 111 108 108 112 114 111 110 111 108 105 102 98 95 89 84 81 78 74 70 64 61 62 60 56 52 51 51 53 53 54 55 56 59 63 66 65 72 75 70 64 61 53 30 36 44 47 63 71 69 67 65 64 62
182 176 166 162 166 184 183 175 189 181 171 181 186 188 189 193 201 205 208 212 216 227 234 242 255 260 255 196 144 125 119 115 112 116 114 116 120 116 115 115 112 107 102 97 92 86 81 78 73 68 65 59 57 55 53 51 48 47 46 48 49 52 54 57 59 55 58 64 74 81 78 66 60 55 32 31 32 33 61 74 73 73 67 65 63
182 179 172 169 174 180 178 181 198 199 148 160 175 183 187 193 201 208 212 216 222 229 237 244 249 241 226 163 126 108 109 108 109 123 120 119 121 119 119 117 112 105 100 93 86 81 78 73 66 62 59 55 53 51 49 48 45 45 44 45 46 47 49 54 59 56 58 63 71 81 83 73 64 52 36 24 16 25 76 83 77 74 67 65 65
179 179 177 175 177 177 181 185 193 216 155 143 171 183 193 195 199 209 213 215 222 227 231 232 224 204 175 136 124 120 123 111 112 130 127 124 121 122 124 119 114 106 97 89 83 78 73 66 61 57 55 51 49 46 44 43 42 42 41 42 41 40 40 43 52 59 62 65 70 78 77 72 64 51 40 20 18 51 90 86 78 71 67 67 67
178 177 175 178 180 179 186 188 195 208 220 228 199 191 196 196 196 205 211 215 220 220 218 211 190 171 154 136 134 142 150 138 128 137 132 131 130 127 128 123 117 109 101 92 85 77 72 64 57 53 51 48 44 40 37 36 36 36 36 35 35 35 35 38 44 57 63 66 72 77 72 64 57 54 42 22 38 78 84 79 76 70 71 72 73
178 176 177 178 181 187 196 200 202 203 215 226 210 186 187 193 196 201 207 212 213 207 202 190 169 161 152 143 147 156 162 159 149 146 137 137 136 134 138 131 121 110 102 93 85 76 67 58 52 50 47 44 38 35 32 31 31 30 30 30 31 32 33 37 44 57 63 71 80 85 79 65 59 57 33 28 61 77 73 74 74 73 78 79 83
181 178 180 179 182 191 200 212 212 208 211 213 204 171 168 186 195 200 206 210 209 199 190 175 160 162 159 152 152 157 160 157 152 150 146 142 139 141 148 136 123 110 100 88 79 70 58 49 45 48 45 40 36 32 31 29 28 26 27 28 31 34 34 38 47 58 63 78 88 95 85 69 66 58 44 59 73 72 71 74 78 82 85 88 82
186 182 184 184 186 190 199 215 220 221 214 212 206 177 173 184 194 204 209 208 208 199 186 175 165 166 167 163 158 155 155 153 152 155 155 150 151 154 154 141 126 114 103 89 77 65 53 46 41 45 42 39 36 31 30 28 27 28 29 30 32 34 35 41 48 57 65 80 95 97 84 70 74 66 66 75 78 78 75 76 84 92 94 92 67
192 190 192 190 190 195 201 210 219 223 220 219 212 195 197 196 197 206 213 210 209 198 185 182 177 172 167 168 166 161 157 159 160 165 168 162 163 164 159 151 139 131 119 103 87 72 53 44 39 41 38 37 34 30 28 25 25 26 28 28 30 31 32 44 53 59 68 87 101 92 75 65 67 65 69 72 81 89 80 80 92 104 104 76 39
198 200 203 200 196 200 205 211 215 217 216 218 217 215 212 214 210 209 218 214 208 200 191 188 183 179 171 171 174 172 166 165 168 175 179 172 173 171 165 165 160 159 146 123 108 94 57 41 33 34 33 32 28 23 21 19 20 20 23 23 25 27 28 43 57 64 77 96 99 85 71 62 61 67 70 65 85 102 88 89 107 126 108 39 5
203 204 207 209 204 203 209 215 213 212 212 212 217 223 218 222 220 215 219 213 205 204 198 193 188 189 185 179 180 180 177 173 175 183 185 181 183 179 174 180 179 180 170 154 138 111 53 34 22 20 21 24 20 15 15 15 16 15 20 21 21 24 27 45 56 66 85 100 94 80 71 61 79 81 77 71 93 112 100 99 146 169 157 348 348
209 209 210 212 212 209 209 214 214 209 208 210 215 225 226 225 221 216 217 210 204 205 202 197 194 197 197 188 185 186 185 184 184 187 186 185 185 182 183 190 194 197 189 187 175 112 36 20 6 3 5 14 13 10 10 11 13 13 16 18 19 22 29 47 56 74 93 100 90 81 82 80 95 96 90 95 102 100 112 165 199 135 96 322 350
216 216 216 216 216 218 215 213 213 208 204 208 214 226 236 232 223 213 212 210 207 205 202 199 195 195 197 192 192 196 192 187 188 188 187 185 185 185 186 192 204 210 205 211 210 220 320 342 335 342 355 5 5 6 7 8 13 12 13 13 15 21 29 44 62 83 94 105 99 98 121 96 90 105 105 129 124 92 113 212 225 36 61 8 25
221 221 221 220 218 223 223 219 216 210 205 206 211 222 233 237 230 219 215 214 213 208 204 202 198 196 197 195 197 205 203 194 190 190 191 188 189 190 187 193 205 213 215 220 217 226 247 282 302 326 348 357 358 0 4 7 11 9 8 7 10 18 26 37 67 89 93 110 109 123 135 99 88 111 114 165 142 111 128 234 203 56 67 57 49
224 224 223 221 219 223 224 225 226 220 213 209 212 220 224 231 234 229 223 219 217 213 208 207 205 203 203 203 204 209 213 207 201 198 197 193 192 193 193 198 207 212 217 222 226 235 245 267 284 314 336 348 352 357 2 6 7 5 4 4 7 16 26 28 58 94 118 123 119 147 142 111 111 130 133 200 147 134 183 224 87 79 73 62 63
225 226 226 224 222 224 224 225 231 231 227 219 216 223 225 226 230 234 232 226 220 216 214 214 213 211 209 210 211 215 219 217 213 207 204 202 199 197 200 206 211 215 218 222 226 235 245 260 276 301 323 338 348 355 359 1 0 0 0 2 7 12 23 28 45 90 138 146 145 161 160 139 143 158 137 138 142 154 195 185 77 77 78 65 70
229 230 231 229 225 226 227 226 231 236 238 233 224 224 228 230 230 232 235 233 224 219 219 219 219 218 215 216 218 220 222 223 220 216 212 211 208 205 207 212 217 219 221 224 225 232 244 257 272 292 314 333 345 353 353 355 357 357 357 3 11 11 22 33 40 68 142 160 170 173 183 173 151 160 128 132 172 170 192 137 103 92 89 72 69
236 235 236 236 233 232 233 233 235 238 240 239 233 227 228 233 236 234 236 237 231 224 221 221 222 223 222 221 223 224 225 225 222 221 219 217 216 214 214 217 222 224 225 228 231 236 247 258 269 286 308 328 339 347 347 351 353 352 353 3 13 14 24 29 34 51 123 164 183 179 188 176 135 132 140 164 218 209 203 146 137 132 101 77 70
246 243 242 242 239 237 239 240 240 241 240 239 238 233 231 234 239 240 240 239 235 231 227 225 225 227 229 227 225 224 227 228 224 222 221 220 220 219 220 222 226 229 230 233 237 241 249 258 267 282 300 319 331 338 340 343 343 344 347 355 8 15 24 20 35 51 69 162 183 171 168 154 135 154 189 184 221 223 216 176 158 154 134 87 68
248 247 248 247 244 241 241 242 241 242 242 241 241 238 236 235 238 243 244 244 239 235 233 229 228 229 233 233 228 224 226 230 228 227 225 222 222 222 223 226 230 233 235 238 241 246 250 257 265 276 291 307 317 323 329 334 332 336 342 341 359 11 15 15 38 48 20 174 185 176 166 158 154 176 203 210 251 234 208 187 180 176 164 151 36
252 251 250 248 245 242 241 243 242 241 242 243 244 244 242 237 238 243 245 247 243 239 237 235 233 232 233 236 233 228 226 229 231 232 230 228 226 225 226 228 232 235 237 240 244 248 252 257 263 271 282 296 304 314 324 328 330 336 341 336 354 8 8 14 35 36 345 201 195 189 180 179 180 179 165 191 270 267 215 187 190 191 179 180 31
256 254 251 248 245 243 242 243 243 242 242 243 245 247 248 243 240 242 244 247 246 241 239 238 236 234 232 233 234 230 229 231 232 232 233 233 230 229 229 230 232 234 238 241 244 249 253 258 262 270 275 287 298 307 315 311 323 333 333 338 354 2 348 343 320 246 289 223 206 203 195 190 191 177 161 177 242 264 222 207 201 180 173 169 359
254 255 254 252 250 246 244 244 244 244 243 244 245 246 248 248 245 243 244 247 247 244 241 240 238 236 233 231 231 230 229 232 233 233 234 234 233 232 232 232 232 234 238 240 244 247 251 257 260 268 273 282 290 295 303 286 302 321 316 329 345 352 332 327 315 249 238 226 213 209 201 196 190 176 168 173 204 228 206 213 225 190 193 192 359
257 259 259 258 255 250 246 245 246 244 243 245 245 246 246 247 248 246 246 247 248 247 245 242 240 238 237 234 232 232 231 231 232 232 233 233 233 233 233 234 235 235 238 241 243 246 250 254 258 265 270 277 282 287 299 291 287 307 314 318 326 331 316 319 329 329 234 225 220 214 205 202 194 182 180 178 192 215 209 213 235 221 215 192 125
260 263 264 263 260 257 253 250 249 246 244 244 244 244 245 244 247 248 247 248 248 248 247 245 242 241 241 239 236 236 236 234 233 232 232 234 234 234 235 235 236 237 239 241 243 246 249 252 256 260 265 272 278 286 297 293 287 294 306 309 307 310 305 309 322 331 280 224 221 218 207 205 202 193 194 190 196 216 214 215 233 217 194 220 311
263 266 268 267 266 265 261 256 254 250 245 244 243 242 243 242 244 246 247 247 248 249 249 247 244 243 243 242 239 239 240 241 241 239 237 238 238 238 238 237 237 238 240 241 243 246 249 251 254 257 262 269 273 282 290 289 284 281 294 302 296 300 301 299 301 300 293 235 218 222 213 210 210 205 206 205 211 228 228 217 225 211 202 253 299
266 266 266 264 265 264 262 259 257 256 251 247 244 242 242 242 241 243 246 247 248 249 249 248 245 243 243 242 240 239 240 242 243 243 241 240 240 240 240 239 239 239 240 241 244 246 249 251 254 258 261 267 272 278 284 283 276 272 288 296 288 292 296 295 293 288 284 244 212 220 219 215 216 214 215 217 224 238 237 223 228 232 245 274 285
269 265 262 261 262 262 261 259 258 259 258 253 248 244 242 241 241 241 244 246 247 249 249 249 247 244 242 240 239 238 237 238 239 239 239 238 239 240 241 241 240 241 241 242 244 246 249 250 253 257 260 264 269 272 275 274 269 275 286 291 286 282 284 286 289 285 273 248 222 227 226 221 221 221 222 223 231 241 240 234 243 257 271 282 281
269 267 266 263 261 260 259 258 258 259 260 258 253 247 243 242 241 239 241 245 246 248 250 250 248 244 242 239 237 236 235 236 236 235 236 237 238 239 239 240 240 241 242 242 244 246 248 250 252 256 258 261 264 268 271 270 268 275 280 282 279 280 284 284 288 291 269 246 243 242 234 228 224 225 225 224 231 240 244 246 254 264 273 281 280
270 267 267 265 263 261 259 258 256 256 258 259 256 250 246 242 240 239 239 242 245 248 250 250 248 245 241 238 235 234 234 234 235 235 235 237 238 239 239 239 239 240 242 243 244 247 249 251 253 254 256 260 262 264 267 267 266 271 274 269 266 270 276 279 285 293 281 253 244 249 247 239 230 227 226 227 232 239 246 250 257 265 270 275 276
267 262 263 265 264 263 260 258 256 256 257 258 257 253 248 244 241 239 237 239 242 245 248 250 248 245 241 237 234 233 233 233 235 235 235 236 238 240 241 240 240 240 242 243 244 247 249 251 253 255 255 257 259 260 262 265 264 265 268 265 266 270 270 271 277 288 294 275 245 247 254 249 238 231 229 233 237 241 246 252 258 263 266 269 271
258 253 260 268 268 264 260 257 255 254 254 254 255 253 249 246 243 240 238 238 240 242 245 248 248 245 241 237 234 234 232 232 234 235 234 234 236 239 241 240 240 241 243 244 245 246 249 250 251 254 255 256 257 259 259 261 261 264 269 269 269 273 273 272 271 276 286 283 260 255 258 259 254 248 242 239 241 243 246 251 255 258 261 264 266
250 249 260 273 272 264 257 253 250 250 250 250 251 251 248 245 244 242 240 238 238 240 242 244 245 244 242 238 235 235 234 233 234 235 233 233 234 236 238 239 239 241 243 245 246 247 248 249 250 252 255 255 257 259 258 257 260 265 270 272 270 273 275 276 274 273 275 275 269 265 263 265 264 262 259 251 246 247 248 250 253 256 259 260 261
251 250 258 273 273 264 257 251 245 245 246 246 245 245 244 242 241 241 240 239 238 239 240 241 243 243 241 239 236 236 237 235 234 234 234 233 234 234 236 239 240 241 243 245 247 248 250 251 251 252 254 256 257 258 257 257 259 265 268 269 268 269 272 274 276 276 276 273 268 263 263 264 265 267 267 262 255 250 249 251 252 254 257 257 258
253 251 257 268 270 263 259 253 245 242 241 243 244 243 243 242 240 240 241 241 241 241 241 241 242 243 241 240 237 236 238 238 235 234 235 234 234 234 235 238 240 241 242 243 245 248 251 252 252 251 252 254 256 256 256 254 254 259 264 269 272 270 268 268 270 271 272 271 269 266 264 265 267 268 268 268 262 253 248 250 253 254 256 257 258
254 254 258 264 264 260 259 256 249 242 239 240 243 245 246 246 245 243 243 243 244 244 245 245 245 245 244 243 240 237 238 238 236 235 235 235 235 236 236 237 239 241 242 243 244 246 249 250 249 249 249 251 253 255 254 250 247 250 258 265 274 277 272 266 263 263 263 264 264 264 265 267 268 269 270 273 272 263 254 250 251 253 255 257 258
259 258 259 258 257 255 256 255 251 245 239 238 241 245 247 248 250 249 247 246 245 246 247 248 248 247 245 244 242 240 238 238 237 236 235 236 236 237 238 239 241 242 244 244 244 245 246 247 247 247 248 250 251 253 254 249 244 245 253 256 259 270 276 274 271 266 259 258 259 256 259 262 263 270 278 282 283 279 270 260 254 254 256 258 260
263 261 259 256 254 254 254 253 252 247 243 240 240 244 247 249 251 251 251 250 248 247 246 246 245 244 243 242 240 239 238 237 237 238 237 237 238 238 239 240 242 244 246 246 245 246 246 246 246 246 247 250 251 252 253 249 242 235 238 250 251 254 266 273 274 270 264 263 263 258 255 254 260 272 280 283 285 285 281 273 264 259 259 260 262
265 260 258 257 256 256 255 252 251 249 246 245 243 243 244 245 246 247 249 248 247 245 242 242 241 242 242 241 240 240 239 239 238 239 239 239 239 239 240 241 243 245 247 248 248 248 247 246 247 247 246 249 252 253 253 250 244 238 234 237 237 242 261 269 263 268 276 275 269 265 264 262 269 275 275 279 284 284 282 278 272 266 264 262 262
265 260 257 257 256 257 257 252 249 249 248 248 245 242 242 243 243 244 245 245 245 244 243 243 242 243 244 243 243 243 242 241 240 240 240 240 240 240 241 243 244 246 247 249 249 249 249 249 248 247 246 247 248 251 253 251 246 243 241 240 240 246 260 267 263 272 282 280 273 271 273 276 277 274 274 280 281 280 281 278 274 271 267 264 262
269 265 260 256 255 255 255 252 249 248 248 249 247 244 243 242 242 243 246 246 247 248 250 249 248 248 248 246 245 245 244 243 242 241 241 242 242 243 243 244 245 247 248 249 250 251 251 252 251 249 248 248 245 246 251 254 249 246 246 246 248 253 257 256 259 270 274 276 278 276 274 277 280 276 275 282 283 279 278 276 273 272 271 269 265
275 270 263 258 255 253 252 251 250 249 247 248 248 246 244 243 243 244 246 248 248 250 252 252 252 251 251 250 248 247 246 245 244 244 244 243 244 244 245 245 246 247 248 249 251 252 252 252 252 250 248 247 245 246 248 251 252 252 252 251 253 256 257 255 255 259 262 267 274 273 268 269 276 278 275 277 280 279 276 273 271 270 272 270 267
276 268 262 259 258 256 251 248 247 248 247 247 247 247 246 245 245 246 247 249 250 250 250 251 251 251 251 251 249 248 247 246 246 245 245 245 245 245 246 247 247 248 249 250 250 252 252 252 251 250 249 248 248 248 247 248 251 255 256 255 255 255 255 256 255 255 257 260 264 266 265 266 271 276 275 273 277 279 276 272 270 269 270 269 267
286 274 264 257 256 255 252 249 247 246 247 247 247 248 248 248 248 248 249 250 250 249 249 249 250 249 250 249 248 248 248 247 247 246 245 246 246 246 246 247 248 249 249 250 250 251 251 252 252 251 251 250 249 249 249 249 251 254 255 254 255 254 253 254 254 254 255 257 260 262 264 265 269 273 274 272 273 276 274 271 268 267 267 266 266
292 283 273 264 258 255 253 252 250 247 247 247 247 248 249 249 250 250 251 251 251 249 248 248 249 249 249 248 249 248 248 248 247 246 246 246 246 246 247 247 248 249 249 249 249 250 251 252 252 252 251 250 250 250 251 251 249 251 253 252 251 253 254 256 256 256 255 255 258 262 264 265 269 272 272 271 270 270 269 268 268 269 270 268 266